Weather History for Lancaster, SC

Change the Weather History Date:

Thursday, February 21, 2013

  Actual Average (KUZA) Record (KUZA)
Temperature  
Mean Temperature 42 °F -  
Max Temperature 59 °F 58 °F 75 °F (1986)
Min Temperature 26 °F 35 °F 19 °F (1959)
Degree Days  
Heating Degree Days 22    
Moisture  
Dew Point 24 °F    
Average Humidity 54    
Maximum Humidity 100    
Minimum Humidity 20    
Precipitation  
Precipitation 0.00 in - - ()
Sea Level Pressure  
Sea Level Pressure 30.16 in    
Wind  
Wind Speed 0 mph (NE)    
Max Wind Speed 5 mph    
Max Gust Speed -    
Visibility 10 miles    
Events      
Averages and records for this station are not official NWS values.
T = Trace of Precipitation, MM = Missing Value Source: NWS Daily Summary

Daily Weather History Graph

Daily Weather History Graph

Search for Another Location

Airport:

Trip Planner

Search our weather history database for the weather conditions in past years. The results will help you decide how hot, cold, wet, or windy it might be!

Date:

Astronomy

Feb. 21, 2013 Rise Set
Actual Time 7:02 AM EST 6:12 PM EST
Civil Twilight 6:36 AM EST 6:37 PM EST
Nautical Twilight 6:07 AM EST 7:07 PM EST
Astronomical Twilight 5:37 AM EST 7:36 PM EST
Moon 2:32 PM EST (2/21) 3:59 AM EST (2/21)
Length of Visible Light 12h 01m
Length of Day
11h 10m
Waxing Gibbous, 83% of the Moon is Illuminated
Feb 21
Waxing Gibbous
Feb 25
Full
Mar 4
Last Quarter
Mar 11
New
Mar 19
First Quarter

Hourly Weather History & Observations

Time (EST) Temp. Windchill Dew Point Humidity Pressure Visibility Wind Dir Wind Speed Gust Speed Precip Events Conditions
12:15 AM 30.2 °F - 30.2 °F 100% 30.12 in 10.0 mi Calm Calm - N/A   Clear
12:35 AM 30.2 °F - 28.4 °F 93% 30.13 in 10.0 mi Calm Calm - N/A   Clear
12:55 AM 28.4 °F - 28.4 °F 100% 30.13 in 10.0 mi Calm Calm - N/A   Clear
1:15 AM 28.4 °F - 28.4 °F 100% 30.14 in 10.0 mi Calm Calm - N/A   Clear
1:35 AM 28.4 °F - 26.6 °F 93% 30.14 in 10.0 mi Calm Calm - N/A   Clear
1:55 AM 28.4 °F - 28.4 °F 100% 30.13 in 10.0 mi Calm Calm - N/A   Clear
2:15 AM 28.4 °F - 26.6 °F 93% 30.12 in 10.0 mi Calm Calm - N/A   Clear
2:35 AM 28.4 °F - 24.8 °F 86% 30.13 in 10.0 mi Calm Calm - N/A   Clear
2:55 AM 28.4 °F - 24.8 °F 86% 30.13 in 10.0 mi Calm Calm - N/A   Clear
3:15 AM 28.4 °F - 24.8 °F 86% 30.15 in 10.0 mi Calm Calm - N/A   Clear
3:35 AM 28.4 °F - 23.0 °F 80% 30.14 in 10.0 mi Calm Calm - N/A   Clear
4:15 AM 30.2 °F - 23.0 °F 75% 30.14 in 10.0 mi Calm Calm - N/A   Clear
4:35 AM 28.4 °F - 23.0 °F 80% 30.14 in 10.0 mi Calm Calm - N/A   Clear
4:55 AM 28.4 °F - 21.2 °F 74% 30.15 in 10.0 mi Calm Calm - N/A   Clear
5:15 AM 28.4 °F - 23.0 °F 80% 30.16 in 10.0 mi Calm Calm - N/A   Clear
5:35 AM 28.4 °F - 23.0 °F 80% 30.16 in 10.0 mi Calm Calm - N/A   Clear
5:55 AM 28.4 °F - 21.2 °F 74% 30.17 in 10.0 mi Calm Calm - N/A   Clear
6:15 AM 26.6 °F - 23.0 °F 86% 30.17 in 10.0 mi Calm Calm - N/A   Clear
6:35 AM 28.4 °F - 19.4 °F 69% 30.18 in 10.0 mi Calm Calm - N/A   Clear
6:55 AM 26.6 °F - 24.8 °F 93% 30.18 in 10.0 mi Calm Calm - N/A   Clear
7:15 AM 28.4 °F - 21.2 °F 74% 30.19 in 10.0 mi Calm Calm - N/A   Clear
7:35 AM 28.4 °F - 21.2 °F 74% 30.19 in 10.0 mi Calm Calm - N/A   Clear
7:55 AM 28.4 °F - 19.4 °F 69% 30.21 in 10.0 mi Calm Calm - N/A   Clear
8:15 AM 32.0 °F - 19.4 °F 60% 30.21 in 10.0 mi Calm Calm - N/A   Clear
8:35 AM 32.0 °F 28.7 °F 19.4 °F 60% 30.23 in 10.0 mi NE 3.5 mph - N/A   Clear
9:15 AM 37.4 °F 34.9 °F 17.6 °F 45% 30.23 in 10.0 mi NE 3.5 mph - N/A   Clear
9:35 AM 39.2 °F - 17.6 °F 42% 30.23 in 10.0 mi Calm Calm - N/A   Clear
9:55 AM 41.0 °F 39.0 °F 15.8 °F 36% 30.22 in 10.0 mi ENE 3.5 mph - N/A   Clear
10:35 AM 44.6 °F 43.1 °F 15.8 °F 31% 30.23 in 10.0 mi NNE 3.5 mph - N/A   Clear
10:55 AM 46.4 °F - 15.8 °F 29% 30.22 in 10.0 mi Calm Calm - N/A   Clear
11:15 AM 48.2 °F - 15.8 °F 27% 30.22 in 10.0 mi NE 3.5 mph - N/A   Clear
11:35 AM 48.2 °F - 15.8 °F 27% 30.21 in 10.0 mi NE 3.5 mph - N/A   Clear
12:15 PM 50.0 °F - 14.0 °F 24% 30.20 in 10.0 mi Calm Calm - N/A   Clear
12:35 PM 50.0 °F - 15.8 °F 26% 30.18 in 10.0 mi Calm Calm - N/A   Clear
12:55 PM 53.6 °F - 15.8 °F 22% 30.17 in 10.0 mi West 3.5 mph - N/A   Clear
1:15 PM 53.6 °F - 15.8 °F 22% 30.16 in 10.0 mi Calm Calm - N/A   Clear
1:35 PM 55.4 °F - 17.6 °F 23% 30.15 in 10.0 mi Calm Calm - N/A   Clear
1:55 PM 55.4 °F - 17.6 °F 23% 30.13 in 10.0 mi Calm Calm - N/A   Clear
2:15 PM 57.2 °F - 17.6 °F 21% 30.11 in 10.0 mi Calm Calm - N/A   Clear
2:35 PM 57.2 °F - 19.4 °F 23% 30.10 in 10.0 mi Calm Calm - N/A   Clear
2:55 PM 59.0 °F - 17.6 °F 20% 30.09 in 10.0 mi South 3.5 mph - N/A   Clear
3:15 PM 57.2 °F - 19.4 °F 23% 30.10 in 10.0 mi WSW 4.6 mph - N/A   Clear
3:35 PM 59.0 °F - 17.6 °F 20% 30.11 in 10.0 mi Calm Calm - N/A   Clear
3:55 PM 59.0 °F - 19.4 °F 22% 30.12 in 10.0 mi NNW 3.5 mph - N/A   Clear
4:15 PM 57.2 °F - 19.4 °F 23% 30.11 in 10.0 mi Calm Calm - N/A   Clear
4:35 PM 57.2 °F - 21.2 °F 25% 30.11 in 10.0 mi Calm Calm - N/A   Clear
4:55 PM 57.2 °F - 24.8 °F 29% 30.11 in 10.0 mi Calm Calm - N/A   Clear
5:15 PM 55.4 °F - 32.0 °F 41% 30.11 in 10.0 mi Calm Calm - N/A   Clear
5:35 PM 53.6 °F - 32.0 °F 44% 30.11 in 10.0 mi Calm Calm - N/A   Clear
5:55 PM 51.8 °F - 32.0 °F 47% 30.12 in 10.0 mi Calm Calm - N/A   Clear
6:15 PM 50.0 °F - 33.8 °F 54% 30.11 in 10.0 mi Calm Calm - N/A   Clear
6:35 PM 48.2 °F - 32.0 °F 54% 30.12 in 10.0 mi Calm Calm - N/A   Clear
6:55 PM 46.4 °F - 28.4 °F 50% 30.13 in 10.0 mi Calm Calm - N/A   Clear
7:15 PM 48.2 °F - 26.6 °F 43% 30.13 in 10.0 mi Calm Calm - N/A   Clear
7:35 PM 44.6 °F - 32.0 °F 61% 30.14 in 10.0 mi Calm Calm - N/A   Clear
7:55 PM 42.8 °F - 32.0 °F 66% 30.13 in 10.0 mi Calm Calm - N/A   Clear
8:15 PM 44.6 °F - 26.6 °F 49% 30.13 in 10.0 mi Calm Calm - N/A   Clear
8:35 PM 44.6 °F - 26.6 °F 49% 30.13 in 10.0 mi Calm Calm - N/A   Clear
8:55 PM 44.6 °F - 24.8 °F 46% 30.14 in 10.0 mi Calm Calm - N/A   Clear
9:15 PM 46.4 °F - 24.8 °F 43% 30.15 in 10.0 mi Calm Calm - N/A   Clear
9:35 PM 46.4 °F - 26.6 °F 46% 30.16 in 10.0 mi Calm Calm - N/A   Clear
9:55 PM 46.4 °F - 30.2 °F 53% 30.17 in 10.0 mi Calm Calm - N/A   Clear
10:15 PM 46.4 °F - 30.2 °F 53% 30.19 in 10.0 mi Calm Calm - N/A   Clear
10:35 PM 46.4 °F - 32.0 °F 57% 30.18 in 10.0 mi Calm Calm - N/A   Clear
10:55 PM 46.4 °F - 28.4 °F 50% 30.19 in 10.0 mi Calm Calm - N/A   Clear
11:15 PM 46.4 °F 45.2 °F 28.4 °F 50% 30.18 in 10.0 mi ENE 3.5 mph - N/A   Clear
11:35 PM 46.4 °F - 26.6 °F 46% 30.20 in 10.0 mi Calm Calm - N/A   Clear
11:55 PM 46.4 °F 45.2 °F 28.4 °F 50% 30.19 in 10.0 mi NE 3.5 mph - N/A   Clear